Jefferson, NC

11:15 PM EST on February 13, 2016 (GMT -0500)
Ashe County

Weather History for KGEV - December, 2006

Change the Weather History Date:

Monday, December 18, 2006

  Actual Average Record
Temperature  
Mean Temperature 57 °F -  
Max Temperature 64 °F 45 °F 65 °F (1967)
Min Temperature 50 °F 21 °F 7 °F (1972)
Degree Days  
Heating Degree Days 8    
Growing Degree Days 7 (Base 50)    
Moisture  
Dew Point 30 °F    
Average Humidity 35    
Maximum Humidity 51    
Minimum Humidity 22    
Precipitation  
Precipitation 0.00 in - - ()
Sea Level Pressure  
Sea Level Pressure 30.29 in    
Wind  
Wind Speed 7 mph (West)    
Max Wind Speed 18 mph    
Max Gust Speed 25 mph    
Visibility 10 miles    
Events      
Averages and records for this station are not official NWS values.
T = Trace of Precipitation, MM = Missing Value Source: NWS Daily Summary

Daily Weather History Graph

Daily Weather History Graph

Search for Another Location

Airport or City:

Trip Planner

Search our weather history database for the weather conditions in past years. The results will help you decide how hot, cold, wet, or windy it might be!

Date:

Astronomy

Dec. 18, 2006 Rise Set
Actual Time 7:31 AM EST 5:12 PM EST
Civil Twilight 7:03 AM EST 5:41 PM EST
Nautical Twilight 6:30 AM EST 6:13 PM EST
Astronomical Twilight 5:59 AM EST 6:45 PM EST
Moon 5:49 AM EST (12/18) 3:23 PM EST (12/18)
Length of Visible Light 10h 38m
Length of Day
9h 40m
Waning Crescent, 4% of the Moon is Illuminated
Dec 18
Waning Crescent
Dec 20
New
Dec 27
First Quarter
Jan 3
Full
Jan 11
Last Quarter

Hourly Weather History & Observations

Time (EST) Temp. Dew Point Humidity Pressure Visibility Wind Dir Wind Speed Gust Speed Precip Events Conditions
12:02 AM 53.6 °F 17.6 °F 24% 30.27 in 10.0 mi Calm Calm - N/A   Clear
12:22 AM 53.6 °F 15.8 °F 22% 30.27 in 10.0 mi WNW 3.5 mph - N/A   Clear
12:42 AM 53.6 °F 19.4 °F 26% 30.26 in 10.0 mi WNW 5.8 mph - N/A   Clear
1:03 AM 55.4 °F 24.8 °F 31% 30.26 in 10.0 mi West 4.6 mph - N/A   Clear
1:22 AM 53.6 °F 23.0 °F 30% 30.25 in 10.0 mi West 4.6 mph - N/A   Clear
2:02 AM 55.4 °F 24.8 °F 31% 30.26 in 10.0 mi West 4.6 mph - N/A   Clear
2:22 AM 59.0 °F 26.6 °F 29% 30.26 in 10.0 mi WSW 4.6 mph - N/A   Clear
2:43 AM 53.6 °F 26.6 °F 35% 30.26 in 10.0 mi Calm Calm - N/A   Clear
3:02 AM 51.8 °F 26.6 °F 38% 30.26 in 10.0 mi Calm Calm - N/A   Clear
3:22 AM 51.8 °F 28.4 °F 41% 30.26 in 10.0 mi Calm Calm - N/A   Clear
4:02 AM 50.0 °F 28.4 °F 43% 30.26 in 10.0 mi West 4.6 mph - N/A   Clear
4:22 AM 55.4 °F 30.2 °F 38% 30.25 in 10.0 mi WNW 12.7 mph 16.1 mph N/A   Clear
4:42 AM 55.4 °F 30.2 °F 38% 30.25 in 10.0 mi WNW 11.5 mph 19.6 mph N/A   Clear
5:02 AM 55.4 °F 28.4 °F 36% 30.26 in 10.0 mi WNW 13.8 mph 21.9 mph N/A   Clear
5:22 AM 55.4 °F 26.6 °F 33% 30.26 in 10.0 mi WNW 11.5 mph 18.4 mph N/A   Clear
5:42 AM 55.4 °F 26.6 °F 33% 30.27 in 10.0 mi WNW 11.5 mph 20.7 mph N/A   Clear
6:02 AM 55.4 °F 26.6 °F 33% 30.27 in 10.0 mi WNW 18.4 mph - N/A   Clear
6:22 AM 55.4 °F 26.6 °F 33% 30.27 in 10.0 mi WNW 18.4 mph 25.3 mph N/A   Clear
6:42 AM 55.4 °F 28.4 °F 36% 30.27 in 10.0 mi WNW 16.1 mph 25.3 mph N/A   Clear
7:02 AM 55.4 °F 26.6 °F 33% 30.27 in 10.0 mi WNW 18.4 mph 25.3 mph N/A   Clear
7:22 AM 55.4 °F 26.6 °F 33% 30.28 in 10.0 mi WNW 13.8 mph 24.2 mph N/A   Clear
7:42 AM 55.4 °F 26.6 °F 33% 30.29 in 10.0 mi West 12.7 mph 23.0 mph N/A   Clear
8:02 AM 57.2 °F 28.4 °F 33% 30.29 in 10.0 mi WNW 12.7 mph 24.2 mph N/A   Clear
8:22 AM 59.0 °F 28.4 °F 31% 30.30 in 10.0 mi West 10.4 mph 20.7 mph N/A   Clear
8:42 AM 59.0 °F 28.4 °F 31% 30.30 in 10.0 mi West 13.8 mph 20.7 mph N/A   Clear
9:02 AM 59.0 °F 28.4 °F 31% 30.31 in 10.0 mi WNW 10.4 mph 19.6 mph N/A   Clear
9:22 AM 59.0 °F 30.2 °F 34% 30.31 in 10.0 mi WNW 8.1 mph 20.7 mph N/A   Clear
9:42 AM 59.0 °F 30.2 °F 34% 30.32 in 10.0 mi WNW 9.2 mph 23.0 mph N/A   Clear
10:03 AM 59.0 °F 30.2 °F 34% 30.32 in 10.0 mi West 11.5 mph 21.9 mph N/A   Clear
10:22 AM 60.8 °F 30.2 °F 31% 30.32 in 10.0 mi WNW 16.1 mph 24.2 mph N/A   Clear
11:02 AM 60.8 °F 30.2 °F 31% 30.32 in 10.0 mi West 9.2 mph 19.6 mph N/A   Clear
11:22 AM 60.8 °F 30.2 °F 31% 30.32 in 10.0 mi West 11.5 mph 17.3 mph N/A   Clear
11:42 AM 62.6 °F 30.2 °F 30% 30.31 in 10.0 mi West 11.5 mph 19.6 mph N/A   Clear
12:02 PM 64.4 °F 32.0 °F 30% 30.30 in 10.0 mi WSW 10.4 mph 18.4 mph N/A   Clear
12:22 PM 64.4 °F 32.0 °F 30% 30.30 in 10.0 mi West 15.0 mph 19.6 mph N/A   Clear
1:02 PM 64.4 °F 32.0 °F 30% 30.29 in 10.0 mi West 16.1 mph 23.0 mph N/A   Clear
1:22 PM 64.4 °F 32.0 °F 30% 30.29 in 10.0 mi WSW 5.8 mph 18.4 mph N/A   Clear
1:42 PM 64.4 °F 32.0 °F 30% 30.28 in 10.0 mi West 12.7 mph 17.3 mph N/A   Clear
2:02 PM 64.4 °F 32.0 °F 30% 30.28 in 10.0 mi West 10.4 mph 16.1 mph N/A   Clear
2:22 PM 64.4 °F 32.0 °F 30% 30.27 in 10.0 mi WSW 6.9 mph 18.4 mph N/A   Clear
2:43 PM 64.4 °F 32.0 °F 30% 30.28 in 10.0 mi West 11.5 mph - N/A   Clear
3:02 PM 64.4 °F 32.0 °F 30% 30.28 in 10.0 mi West 8.1 mph - N/A   Clear
3:22 PM 64.4 °F 32.0 °F 30% 30.28 in 10.0 mi West 13.8 mph 18.4 mph N/A   Clear
3:42 PM 64.4 °F 33.8 °F 32% 30.29 in 10.0 mi West 8.1 mph - N/A   Clear
4:02 PM 62.6 °F 33.8 °F 34% 30.29 in 10.0 mi West 5.8 mph - N/A   Clear
4:22 PM 62.6 °F 33.8 °F 34% 30.29 in 10.0 mi West 8.1 mph - N/A   Clear
4:42 PM 60.8 °F 33.8 °F 36% 30.29 in 10.0 mi West 9.2 mph 17.3 mph N/A   Clear
5:02 PM 60.8 °F 33.8 °F 36% 30.29 in 10.0 mi West 8.1 mph 16.1 mph N/A   Clear
5:23 PM 60.8 °F 33.8 °F 36% 30.30 in 10.0 mi West 4.6 mph - N/A   Clear
5:42 PM 59.0 °F 33.8 °F 39% 30.30 in 10.0 mi West 8.1 mph - N/A   Clear
6:02 PM 59.0 °F 33.8 °F 39% 30.30 in 10.0 mi West 10.4 mph 18.4 mph N/A   Clear
6:22 PM 59.0 °F 35.6 °F 42% 30.30 in 10.0 mi WNW 8.1 mph - N/A   Clear
6:42 PM 59.0 °F 35.6 °F 42% 30.30 in 10.0 mi West 11.5 mph 17.3 mph N/A   Clear
7:02 PM 59.0 °F 35.6 °F 42% 30.30 in 10.0 mi NW 9.2 mph - N/A   Clear
7:22 PM 59.0 °F 35.6 °F 42% 30.31 in 10.0 mi WNW 6.9 mph - N/A   Clear
7:42 PM 55.4 °F 35.6 °F 47% 30.31 in 10.0 mi NW 3.5 mph - N/A   Clear
8:02 PM 55.4 °F 35.6 °F 47% 30.31 in 10.0 mi West 6.9 mph - N/A   Clear
8:22 PM 55.4 °F 35.6 °F 47% 30.31 in 10.0 mi Calm Calm - N/A   Clear
8:42 PM 55.4 °F 35.6 °F 47% 30.31 in 10.0 mi West 4.6 mph - N/A   Clear
9:02 PM 55.4 °F 35.6 °F 47% 30.31 in 10.0 mi Calm Calm - N/A   Clear
9:22 PM 55.4 °F 37.4 °F 51% 30.30 in 10.0 mi West 4.6 mph - N/A   Clear
10:02 PM 55.4 °F 35.6 °F 47% 30.30 in 10.0 mi West 6.9 mph - N/A   Clear
10:23 PM 55.4 °F 37.4 °F 51% 30.30 in 10.0 mi West 5.8 mph - N/A   Clear
11:02 PM 55.4 °F 37.4 °F 51% 30.29 in 10.0 mi West 6.9 mph - N/A   Clear
11:22 PM 55.4 °F 37.4 °F 51% 30.28 in 10.0 mi West 5.8 mph - N/A   Clear
11:43 PM 55.4 °F 37.4 °F 51% 30.28 in 10.0 mi West 3.5 mph - N/A   Clear